CAPE
0 0 0 0 0 0 0 0 0 0 0 0 0 0 0 0 0 0 0 0 0 0 0 0 0 0 0 0 0 1 2 3 2 2 2 3 4 2 312 284 367 217 62 3
0 0 0 0 0 0 0 0 0 0 0 0 0 0 0 0 0 0 0 0 0 0 0 0 0 0 0 0 0 0 1 2 3 2 2 3 5 2 15 213 316 308 134 64
0 0 0 0 0 0 0 0 0 0 0 0 0 0 0 0 0 0 0 0 0 0 0 0 0 0 0 0 0 0 1 1 2 2 2 2 3 3 1 1 70 303 253 81
0 0 0 0 0 0 0 0 0 0 0 0 0 0 0 0 0 0 0 0 0 0 0 0 0 0 0 0 0 0 0 1 1 2 3 2 3 4 1 2 12 54 130 163
0 0 0 0 0 0 0 0 0 0 0 0 0 0 0 0 0 0 0 0 0 0 0 0 0 0 0 0 0 0 0 1 2 2 2 3 3 6 6 5 6 13 3 48
0 0 0 0 0 0 0 0 0 0 0 0 0 0 0 0 0 0 0 0 0 0 0 0 0 0 0 0 0 0 0 0 1 2 2 2 2 3 4 7 2 28 34 46
0 0 0 0 0 0 0 0 0 0 0 0 0 0 0 0 0 0 0 0 0 0 0 0 0 0 0 0 0 0 0 0 0 2 2 1 1 1 4 5 5 1 1 0
0 0 0 0 0 0 0 0 0 0 0 0 0 0 0 0 0 0 0 0 0 0 0 0 0 0 0 0 0 0 0 0 0 0 2 2 1 1 1 4 4 6 4 5
0 0 0 0 0 0 0 0 0 0 0 0 0 0 0 0 0 0 0 0 0 0 0 0 0 0 0 0 0 0 0 0 0 0 0 2 1 1 2 2 3 5 6 8
0 0 0 0 0 0 0 0 0 0 0 0 0 0 0 0 0 0 0 0 0 0 0 0 0 0 0 0 0 0 0 0 0 0 0 0 2 2 0 2 2 2 3 3
0 0 0 0 0 0 0 0 0 0 0 0 0 0 0 0 0 0 0 0 0 0 0 0 0 0 0 0 0 0 0 0 0 0 0 0 0 1 1 1 1 3 2 3
0 0 0 0 0 0 0 0 0 0 0 0 0 0 0 0 0 0 0 0 0 0 0 0 0 0 0 0 0 0 0 0 0 0 0 0 0 2 2 0 0 1 1 1
0 0 0 0 0 0 0 0 0 0 0 0 0 0 0 0 0 0 0 0 0 0 0 0 0 0 0 0 0 0 0 0 0 0 0 0 0 0 0 0 0 0 0 1
0 0 0 0 0 0 0 0 0 0 0 0 0 0 0 0 0 0 0 0 0 0 0 0 0 0 0 0 0 0 0 0 0 0 0 0 0 0 4 2 0 0 0 0
0 0 0 0 0 0 0 0 0 0 0 0 0 0 0 0 0 0 0 0 0 0 0 0 0 0 0 1 0 0 0 0 0 0 0 0 0 0 0 0 0 0 0 0
0 0 0 0 0 0 0 0 0 0 0 0 0 0 0 0 0 0 0 0 0 0 0 0 0 0 3 2 0 0 0 0 0 0 0 0 0 0 0 0 0 0 0 0
0 0 0 0 0 0 0 0 0 0 0 0 0 0 0 0 0 0 0 0 0 0 0 0 0 0 0 1 0 0 0 0 0 0 0 0 0 0 0 0 0 0 0 0
0 0 0 0 0 0 0 0 0 0 0 0 0 0 0 0 0 0 0 0 0 0 0 0 0 0 0 0 0 0 0 0 0 0 0 0 0 0 0 0 0 0 0 0
0 0 0 0 0 0 0 0 0 0 0 0 0 0 0 0 0 0 0 0 0 0 0 0 0 0 0 0 0 1 0 0 0 0 0 0 0 0 0 0 0 0 0 0
0 0 0 0 0 0 0 0 0 0 0 0 0 0 0 0 0 0 0 0 0 0 1 0 0 0 0 1 1 1 0 0 0 0 0 0 0 0 0 0 0 0 0 0
0 0 0 0 0 0 0 0 0 0 0 0 0 0 0 0 0 0 0 0 0 0 0 0 0 1 0 0 1 0 0 0 1 0 0 1 0 1 1 1 1 1 0 0
0 0 0 0 0 0 0 0 0 0 0 0 0 0 0 0 0 0 0 0 0 0 0 0 0 0 0 0 0 0 0 0 0 0 0 1 2 0 1 1 1 2 2 2
0 0 0 0 0 0 0 0 0 0 0 0 0 0 0 0 0 0 0 0 0 0 0 0 0 0 0 0 0 0 0 0 0 0 0 0 0 1 1 0 0 0 1 2
0 0 0 0 0 0 0 0 0 0 0 0 0 0 0 0 0 0 0 0 0 0 0 0 0 0 0 0 0 0 0 0 0 0 0 0 0 0 0 0 0 0 0 0
0 0 0 0 0 0 0 0 0 0 0 0 0 0 0 0 0 0 0 0 0 0 0 0 0 0 0 0 0 0 0 0 0 0 0 0 0 0 0 0 0 0 0 0
0 0 0 0 0 0 0 0 0 0 0 0 0 0 0 0 0 0 0 0 0 0 0 0 0 0 0 0 0 0 0 0 0 0 0 0 0 0 0 0 0 0 0 0
0 0 0 0 0 0 0 0 0 0 0 0 0 0 0 0 0 0 0 0 0 0 0 0 0 0 0 0 0 0 0 0 0 0 0 0 0 0 0 0 0 0 0 0
CIN
-0 -0 -0 -0 -0 -0 -0 -0 -0 -0 -0 -0 -0 -0 -0 -0 -0 -0 -0 -0 -0 -0 -0 -0 -0 -0 -0 -0 -0 -0 -0 -0 -0 -0 -0 -0 -0 -0 -2 -16 -2 -50 -102 -168
-0 -0 -0 -0 -0 -0 -0 -0 -0 -0 -0 -0 -0 -0 -0 -0 -0 -0 -0 -0 -0 -0 -0 -0 -0 -0 -0 -0 -0 -0 -0 -0 -0 -0 -0 -0 -0 -0 -10 -15 -5 -2 -33 -86
-1 -0 -0 -0 -9 -0 -0 -0 -0 -0 -0 -0 -0 -0 -0 -0 -0 -0 -0 -0 -0 -0 -0 -0 -0 -0 -0 -0 -0 -0 -0 -0 -0 -0 -0 -0 -0 -0 -0 -23 -43 -0 -9 -22
-0 -7 -0 -0 -0 -0 -0 -0 -0 -0 -0 -0 -0 -0 -0 -0 -0 -0 -0 -0 -0 -0 -0 -0 -0 -0 -0 -0 -0 -0 -0 -0 -0 -0 -0 -0 -0 -0 -0 -0 -58 -46 -3 -9
-0 -0 -0 -0 -0 -0 -0 -0 -0 -0 -0 -0 -0 -0 -0 -0 -0 -0 -0 -0 -0 -0 -0 -0 -0 -0 -0 -0 -0 -0 -0 -0 -0 -0 -0 -0 -0 -0 -0 -0 -114 -103 -4 -4
-0 -0 -0 -0 -0 -0 -0 -0 -0 -0 -0 -0 -0 -0 -0 -0 -0 -0 -0 -0 -0 -0 -0 -0 -0 -0 -0 -0 -0 -0 -0 -0 -0 -0 -0 -0 -0 -0 -0 -0 -0 -76 -71 -11
-0 -0 -0 -0 -0 -0 -0 -0 -0 -0 -0 -0 -0 -0 -0 -0 -0 -0 -0 -0 -0 -0 -0 -0 -0 -0 -0 -0 -0 -0 -0 -0 -0 -0 -0 -0 -0 -0 -0 -0 -0 -0 -0 -0
-0 -0 -0 -0 -0 -0 -0 -0 -0 -0 -0 -0 -0 -0 -0 -0 -0 -0 -0 -0 -0 -0 -0 -0 -0 -0 -0 -0 -0 -0 -0 -0 -0 -0 -0 -0 -0 -0 -0 -0 -0 -0 -0 -0
-0 -0 -0 -0 -0 -0 -0 -0 -0 -0 -0 -0 -0 -0 -0 -0 -0 -0 -0 -0 -0 -0 -0 -0 -0 -0 -0 -0 -0 -0 -0 -0 -0 -0 -0 -0 -0 -0 -0 -0 -0 -0 -0 -0
-0 -0 -0 -0 -0 -0 -0 -0 -0 -0 -0 -0 -0 -0 -0 -0 -0 -0 -0 -0 -0 -0 -0 -0 -0 -0 -0 -0 -0 -0 -0 -0 -0 -0 -0 -0 -0 -0 -0 -0 -0 -0 -0 -0
-0 -0 -0 -0 -0 -0 -0 -0 -0 -0 -0 -0 -0 -0 -0 -0 -0 -0 -0 -0 -0 -0 -0 -0 -0 -0 -0 -0 -0 -0 -0 -0 -0 -0 -0 -0 -0 -0 -0 -0 -0 -0 -0 -0
-0 -0 -0 -2 -0 -0 -0 -0 -0 -0 -0 -0 -0 -0 -0 -0 -0 -0 -0 -0 -0 -0 -0 -0 -0 -0 -0 -0 -0 -0 -0 -0 -0 -0 -0 -0 -0 -0 -0 -0 -0 -0 -0 -0
-0 -0 -0 -0 -0 -0 -0 -0 -0 -0 -0 -0 -0 -0 -0 -0 -0 -0 -0 -0 -0 -0 -0 -0 -0 -0 -0 -0 -0 -0 -0 -0 -0 -0 -0 -0 -0 -0 -0 -0 -0 -0 -0 -0
-0 -0 -0 -0 -0 -0 -0 -0 -0 -0 -0 -0 -0 -0 -0 -0 -0 -0 -0 -0 -0 -0 -0 -0 -0 -0 -0 -0 -0 -0 -0 -0 -0 -0 -0 -0 -0 -0 -1 -0 -0 -0 -0 -0
-0 -0 -0 -0 -0 -0 -0 -0 -0 -0 -0 -0 -0 -0 -0 -0 -0 -0 -0 -0 -0 -0 -0 -0 -0 -0 -0 -0 -4 -0 -0 -0 -0 -0 -0 -0 -0 -0 -0 -2 -0 -0 -0 -0
-0 -0 -0 -0 -0 -0 -0 -0 -0 -0 -0 -0 -0 -0 -0 -0 -0 -0 -0 -0 -0 -0 -0 -0 -0 -0 -0 -0 -0 -0 -0 -0 -0 -0 -0 -0 -0 -0 -0 -0 -0 -0 -0 -0
-0 -0 -0 -0 -0 -0 -0 -0 -0 -0 -0 -0 -0 -0 -0 -0 -0 -0 -0 -0 -0 -0 -0 -0 -0 -0 -0 -0 -0 -0 -0 -0 -0 -0 -0 -0 -0 -0 -0 -0 -0 -0 -0 -0
-0 -0 -0 -0 -0 -0 -0 -0 -0 -0 -0 -0 -0 -0 -0 -0 -0 -0 -0 -1 -0 -0 -0 -0 -0 -0 -0 -0 -0 -0 -0 -0 -0 -0 -0 -0 -0 -0 -0 -0 -0 -0 -0 -0
-0 -0 -0 -0 -0 -0 -0 -0 -0 -0 -0 -0 -0 -0 -0 -0 -0 -0 -0 -0 -0 -0 -0 -0 -0 -0 -0 -0 -0 -0 -0 -0 -0 -0 -0 -0 -0 -0 -0 -0 -0 -0 -0 -0
-0 -0 -0 -0 -0 -0 -0 -0 -0 -0 -0 -0 -0 -0 -0 -0 -0 -0 -0 -0 -0 -0 -0 -0 -0 -0 -0 -0 -0 -0 -0 -0 -0 -0 -0 -0 -0 -0 -0 -0 -0 -0 -0 -0
-0 -0 -0 -0 -0 -0 -0 -0 -0 -0 -0 -0 -0 -0 -0 -0 -0 -0 -0 -0 -0 -0 -0 -0 -0 -0 -0 -0 -0 -0 -0 -0 -0 -0 -0 -0 -0 -0 -0 -0 -0 -0 -0 -0
-0 -0 -0 -0 -0 -0 -0 -0 -0 -0 -0 -0 -0 -0 -0 -0 -0 -0 -0 -0 -0 -0 -0 -0 -0 -0 -0 -0 -0 -0 -0 -0 -0 -0 -0 -0 -0 -0 -0 -0 -0 -0 -0 -0
-0 -0 -0 -0 -0 -0 -0 -0 -0 -0 -0 -0 -0 -0 -0 -0 -0 -0 -0 -0 -0 -0 -0 -0 -0 -0 -0 -0 -0 -0 -0 -0 -0 -0 -0 -0 -0 -0 -0 -0 -0 -0 -0 -0
-0 -0 -0 -0 -0 -0 -0 -0 -0 -0 -0 -0 -0 -0 -0 -0 -0 -0 -0 -0 -0 -0 -0 -0 -0 -0 -0 -0 -0 -0 -0 -0 -0 -0 -0 -0 -0 -0 -0 -0 -0 -0 -0 -0
-0 -0 -0 -0 -0 -0 -0 -0 -0 -0 -0 -0 -0 -0 -0 -0 -0 -0 -0 -0 -0 -0 -0 -0 -0 -0 -0 -0 -0 -0 -0 -0 -0 -0 -0 -0 -0 -0 -0 -0 -0 -0 -0 -0
-0 -0 -0 -0 -0 -0 -0 -0 -0 -0 -0 -0 -0 -0 -0 -0 -0 -0 -0 -0 -0 -0 -0 -0 -0 -0 -0 -0 -0 -0 -0 -0 -0 -0 -0 -0 -0 -0 -0 -0 -0 -0 -0 -0
-0 -0 -0 -0 -0 -0 -0 -0 -0 -0 -0 -0 -0 -0 -0 -0 -0 -0 -0 -0 -0 -0 -0 -0 -0 -0 -0 -0 -0 -0 -0 -0 -0 -0 -0 -0 -0 -0 -0 -0 -0 -0 -0 -0
Wind_Speed
22 22 25 25 29 30 29 24 23 26 26 28 30 31 31 32 33 33 33 32 33 33 34 32 32 32 33 31 33 33 34 34 35 36 37 39 39 38 45 45 45 40 39 34
16 14 19 24 25 27 29 27 27 27 28 29 33 33 32 33 35 35 35 35 34 35 36 35 35 35 36 34 35 35 35 36 37 38 38 40 42 44 40 46 49 45 45 43
24 16 16 20 21 22 27 30 30 29 31 32 35 36 35 35 35 36 36 36 35 35 35 34 34 34 35 36 36 36 36 37 38 38 40 40 41 41 43 39 45 49 49 46
24 18 22 14 17 20 24 26 25 29 31 33 35 36 35 35 36 36 36 37 36 37 35 35 35 35 36 36 36 36 36 37 37 39 40 41 41 42 42 44 41 46 51 47
28 24 15 14 15 16 16 19 20 29 32 34 35 35 35 35 36 36 36 36 37 35 33 36 36 36 36 36 36 35 37 37 38 37 39 40 40 40 41 42 46 46 46 39
26 26 21 13 13 19 18 16 21 18 26 35 36 36 36 37 36 36 35 37 37 37 37 37 37 36 36 37 37 37 36 37 38 37 36 36 36 37 35 38 38 35 47 43
27 26 19 11 13 19 16 16 17 19 18 35 36 36 38 37 36 34 36 36 38 37 36 36 35 36 36 37 36 35 34 36 36 35 34 34 32 32 31 31 30 29 33 39
27 27 25 15 12 14 12 17 23 22 20 12 9 21 36 36 35 36 36 37 37 36 35 35 35 36 36 36 35 33 33 33 34 34 33 31 30 28 26 28 28 28 29 34
22 20 16 11 11 9 11 16 28 24 25 11 8 26 36 35 36 36 36 38 37 36 35 34 35 35 35 36 35 34 32 31 31 31 31 29 26 24 24 24 25 25 27 30
24 19 15 13 8 6 12 16 27 29 28 13 10 12 31 36 35 36 36 37 37 35 34 34 34 33 33 34 34 33 31 30 30 31 32 32 27 23 22 22 21 19 22 24
23 17 13 10 8 9 9 9 4 10 18 14 9 19 24 31 36 35 36 37 35 34 33 34 33 33 33 33 33 33 33 32 31 30 29 28 27 22 21 20 20 20 19 20
26 20 18 14 13 13 10 8 8 9 11 16 17 24 26 24 22 36 35 35 34 34 34 34 34 34 33 33 32 32 32 31 30 29 28 27 26 24 21 19 18 18 20 19
19 16 19 19 18 16 13 10 11 14 16 21 27 30 31 30 31 38 36 34 33 33 34 35 34 33 33 32 32 31 31 31 30 29 28 27 26 25 23 23 22 21 21 21
23 19 19 18 16 14 13 13 13 14 20 28 32 33 32 32 34 34 36 35 33 33 32 32 32 32 32 32 32 31 31 30 30 29 28 27 26 26 25 25 24 22 22 21
22 20 18 16 15 13 12 13 16 17 17 19 26 33 34 36 36 34 35 35 35 33 32 31 31 32 33 32 31 31 30 30 30 30 29 28 26 26 25 24 23 23 24 22
18 18 18 17 16 16 17 16 15 16 17 17 17 17 24 34 34 34 34 35 34 33 34 33 31 32 32 31 31 30 30 31 30 29 29 28 27 26 26 25 24 24 24 25
19 19 18 19 20 19 18 16 15 15 17 18 18 16 15 12 12 34 34 34 34 33 31 33 34 35 33 32 32 31 30 30 30 29 28 28 28 27 27 27 27 26 26 25
16 17 19 20 21 20 19 16 17 18 19 18 17 18 17 16 14 11 8 14 30 32 35 36 37 36 34 35 33 32 30 30 29 29 28 28 28 27 27 27 27 27 28 27
17 18 18 20 20 20 20 20 20 20 20 20 21 21 21 21 20 18 18 18 16 13 20 35 36 35 36 35 35 33 31 31 30 30 30 30 30 29 29 28 29 30 30 29
17 17 18 19 20 20 21 21 20 21 21 22 22 23 23 23 24 23 24 24 25 22 25 30 31 35 34 34 33 31 30 29 30 30 30 30 30 30 30 31 31 31 31 31
16 17 18 18 19 20 21 22 22 23 23 25 26 26 26 26 27 27 29 28 28 30 30 32 34 35 33 33 31 30 28 27 27 28 28 27 27 28 28 29 29 30 31 31
16 16 16 17 17 19 20 22 23 24 25 26 27 28 28 30 29 29 31 32 29 33 33 34 36 38 35 32 30 29 28 26 25 26 26 26 26 26 27 28 29 29 29 29
15 14 15 16 16 17 19 21 22 23 25 26 27 28 30 29 30 31 32 31 30 31 34 35 35 35 36 34 31 29 28 27 27 27 27 28 29 29 29 29 30 30 30 30
14 13 14 15 15 15 16 18 20 22 23 25 26 27 28 30 30 30 29 30 32 32 33 34 35 35 35 35 35 33 30 29 28 29 29 29 30 30 31 32 32 32 32 32
12 12 12 13 13 13 14 16 17 19 21 22 24 26 28 28 30 30 30 30 31 32 31 32 33 32 31 32 34 35 34 33 31 30 30 30 31 31 31 32 32 32 33 33
10 10 10 11 11 12 13 14 15 17 18 21 23 24 26 27 28 28 29 30 30 30 30 29 30 30 30 28 28 31 34 34 34 34 33 32 32 32 32 33 33 33 33 33
9 11 10 11 10 10 11 12 13 14 16 18 20 22 24 25 26 28 28 29 29 29 29 28 28 28 27 27 25 25 29 32 34 35 34 35 35 35 35 35 35 35 34 34
Wind_Direction
46 48 40 40 27 15 358 338 321 306 303 302 311 310 312 314 318 319 317 319 321 321 324 320 320 321 319 318 315 309 305 296 293 290 283 277 268 269 253 250 246 246 242 237
29 43 42 37 34 30 17 350 328 306 302 308 311 311 310 313 317 319 320 317 317 322 322 321 322 320 324 320 320 314 308 301 294 291 287 279 274 265 268 253 249 246 245 243
25 38 42 31 36 35 20 2 340 323 309 309 310 312 310 309 312 314 317 321 316 316 321 321 317 323 324 323 322 319 311 305 298 295 288 283 276 270 264 265 251 248 249 244
22 36 23 46 42 37 30 25 20 337 325 314 310 309 310 311 309 311 315 317 317 317 317 319 321 323 323 321 323 322 316 312 304 298 291 284 278 270 270 266 261 254 251 249
26 23 39 47 42 31 25 27 33 354 324 324 318 312 308 310 311 309 312 317 317 316 315 317 319 322 324 325 322 323 322 314 312 304 294 287 279 274 270 272 261 259 261 257
26 24 25 37 37 17 27 29 25 28 14 325 329 317 313 311 312 309 313 316 317 317 316 317 318 320 323 324 324 324 326 321 318 309 302 292 287 279 277 272 269 264 258 266
25 26 30 46 42 21 23 15 19 19 22 339 326 323 316 313 310 312 314 316 318 315 316 316 319 322 322 324 324 324 324 327 322 314 308 309 297 287 283 280 275 276 270 265
26 26 28 45 39 31 26 12 1 10 15 15 357 299 317 323 319 315 312 315 316 315 314 315 317 319 320 319 317 321 323 326 323 320 314 309 306 302 293 284 279 279 278 271
30 19 19 40 50 49 43 19 350 4 8 9 334 8 319 323 325 320 318 316 315 314 311 313 315 317 318 320 314 320 318 317 319 322 323 320 315 313 303 298 289 285 279 281
22 29 31 28 42 39 25 15 346 346 358 13 1 7 359 323 318 323 322 319 319 317 314 314 313 315 317 322 324 317 309 304 314 315 319 327 321 323 315 309 304 301 296 295
29 28 31 40 54 50 37 33 25 276 14 12 357 11 9 354 318 314 320 323 324 320 319 316 315 314 314 315 316 321 319 313 311 314 316 314 320 320 329 336 328 319 308 312
27 31 33 41 51 55 46 38 29 11 7 8 11 8 5 8 6 324 315 318 322 323 319 318 317 313 311 310 309 311 313 315 312 313 314 312 314 312 313 321 326 326 328 328
26 36 46 54 52 45 39 28 20 16 8 9 2 356 354 357 357 332 325 318 318 317 319 319 317 316 316 314 309 307 311 307 308 309 307 309 311 313 311 309 316 328 331 328
40 46 41 41 38 38 32 27 19 18 20 4 354 350 348 349 347 345 330 322 312 312 313 318 320 319 318 315 317 310 307 307 310 303 301 303 307 307 307 315 308 310 317 321
44 47 44 41 36 33 31 32 34 28 21 16 5 348 342 338 338 341 336 327 326 325 320 316 318 318 320 319 317 315 311 308 308 305 307 309 311 312 312 313 314 310 303 312
42 37 36 35 36 39 43 40 36 28 24 22 25 26 11 343 335 333 334 328 324 318 323 321 328 322 323 326 323 319 314 311 310 311 305 304 306 308 307 312 309 311 317 304
36 33 35 34 37 39 41 40 33 27 30 35 38 36 37 29 29 336 331 332 329 326 338 328 325 322 320 321 321 323 320 317 313 311 313 310 310 307 303 304 304 306 308 316
40 41 41 37 33 34 35 36 36 39 42 40 39 40 39 43 41 37 28 30 356 339 326 322 319 317 320 315 313 314 316 317 317 315 313 312 312 310 308 305 304 305 305 309
46 42 41 35 33 33 34 37 44 45 44 44 43 43 43 42 41 42 45 45 39 32 349 339 326 326 321 317 312 309 307 310 313 312 312 311 308 310 309 308 305 303 303 302
43 42 40 37 31 33 33 43 46 46 46 46 46 42 42 42 41 40 39 38 33 30 24 13 6 347 329 326 325 321 315 309 308 310 310 309 310 306 303 302 303 303 303 300
38 39 37 38 35 34 34 37 42 43 45 45 43 43 44 45 43 43 40 38 35 30 26 19 8 358 350 340 337 333 330 324 320 317 317 318 317 315 312 309 308 307 305 304
35 37 39 42 42 37 35 31 36 39 42 45 45 46 47 46 46 46 46 42 42 37 35 31 22 9 357 346 341 338 338 336 333 331 329 327 326 323 321 318 314 313 314 314
33 40 43 43 46 47 37 30 33 39 42 45 46 48 48 49 48 46 45 44 44 42 41 38 36 35 26 10 355 347 343 340 337 334 331 330 327 322 320 318 315 314 314 313
32 42 43 46 53 52 44 36 34 36 45 48 48 51 51 49 49 48 48 47 45 45 43 42 41 42 41 34 22 6 354 347 343 340 337 333 330 327 324 320 315 313 311 310
34 42 44 44 50 53 54 44 41 39 44 49 52 51 50 51 48 48 47 46 45 45 45 45 44 44 45 42 32 21 12 1 353 347 342 337 334 332 331 328 323 319 315 312
34 34 40 44 57 66 65 55 49 45 46 47 48 51 50 50 49 48 48 46 45 45 45 45 44 43 43 43 41 32 18 9 1 356 349 343 338 334 331 331 328 325 320 317
33 32 37 42 58 71 73 68 59 52 51 51 51 50 49 50 50 49 47 46 45 45 44 44 43 41 41 40 40 39 30 18 10 4 360 351 344 338 334 332 329 325 322 319